Year,Month,Day,Hour,Minute,Value (Times are PST for temperature in C)
2015,05,30,00,00,14.60
2015,05,30,00,01,14.60
2015,05,30,00,02,14.60
2015,05,30,00,03,14.60
2015,05,30,00,04,14.60
2015,05,30,00,05,14.60
2015,05,30,00,06,14.60
2015,05,30,00,07,14.50
2015,05,30,00,08,14.40
2015,05,30,00,09,14.40
2015,05,30,00,10,14.40
2015,05,30,00,11,14.30
2015,05,30,00,12,14.30
2015,05,30,00,13,14.30
2015,05,30,00,14,14.20
2015,05,30,00,15,14.20
2015,05,30,00,16,14.20
2015,05,30,00,17,14.10
2015,05,30,00,18,14.10
2015,05,30,00,19,14.10
2015,05,30,00,20,14.10
2015,05,30,00,21,14.10
2015,05,30,00,22,14.10
2015,05,30,00,23,14.10
2015,05,30,00,24,14.10
2015,05,30,00,25,14.10
2015,05,30,00,26,14.10
2015,05,30,00,27,14.00
2015,05,30,00,28,14.00
2015,05,30,00,29,14.00
2015,05,30,00,30,13.90
2015,05,30,00,31,13.90
2015,05,30,00,32,13.90
2015,05,30,00,33,13.90
2015,05,30,00,34,13.90
2015,05,30,00,35,13.80
2015,05,30,00,36,13.80
2015,05,30,00,37,13.80
2015,05,30,00,38,13.80
2015,05,30,00,39,13.70
2015,05,30,00,40,13.70
2015,05,30,00,41,13.70
2015,05,30,00,42,13.60
2015,05,30,00,43,13.60
2015,05,30,00,44,13.60
2015,05,30,00,45,13.50
2015,05,30,00,46,13.50
2015,05,30,00,47,13.50
2015,05,30,00,48,13.50
2015,05,30,00,49,13.50
2015,05,30,00,50,13.50
2015,05,30,00,51,13.60
2015,05,30,00,52,13.60
2015,05,30,00,53,13.70
2015,05,30,00,54,13.80
2015,05,30,00,55,13.80
2015,05,30,00,56,13.90
2015,05,30,00,57,14.00
2015,05,30,00,58,14.10
2015,05,30,00,59,14.10
2015,05,30,01,00,14.20
2015,05,30,01,01,14.20
2015,05,30,01,02,14.20
2015,05,30,01,03,14.30
2015,05,30,01,04,14.40
2015,05,30,01,05,14.50
2015,05,30,01,06,14.50
2015,05,30,01,07,14.60
2015,05,30,01,08,14.60
2015,05,30,01,09,14.60
2015,05,30,01,10,14.60
2015,05,30,01,11,14.70
2015,05,30,01,12,14.70
2015,05,30,01,13,14.70
2015,05,30,01,14,14.70
2015,05,30,01,15,14.80
2015,05,30,01,16,14.80
2015,05,30,01,17,14.70
2015,05,30,01,18,14.70
2015,05,30,01,19,14.60
2015,05,30,01,20,14.50
2015,05,30,01,21,14.40
2015,05,30,01,22,14.30
2015,05,30,01,23,14.20
2015,05,30,01,24,14.10
2015,05,30,01,25,14.00
2015,05,30,01,26,13.90
2015,05,30,01,27,13.80
2015,05,30,01,28,13.80
2015,05,30,01,29,13.70
2015,05,30,01,30,13.60
2015,05,30,01,31,13.60
2015,05,30,01,32,13.50
2015,05,30,01,33,13.50
2015,05,30,01,34,13.40
2015,05,30,01,35,13.40
2015,05,30,01,36,13.30
2015,05,30,01,37,13.30
2015,05,30,01,38,13.30
2015,05,30,01,39,13.20
2015,05,30,01,40,13.20
2015,05,30,01,41,13.10
2015,05,30,01,42,13.10
2015,05,30,01,43,13.10
2015,05,30,01,44,13.10
2015,05,30,01,45,13.10
2015,05,30,01,46,13.10
2015,05,30,01,47,13.10
2015,05,30,01,48,13.10
2015,05,30,01,49,13.10
2015,05,30,01,50,13.10
2015,05,30,01,51,13.10
2015,05,30,01,52,13.10
2015,05,30,01,53,13.10
2015,05,30,01,54,13.10
2015,05,30,01,55,13.10
2015,05,30,01,56,13.10
2015,05,30,01,57,13.00
2015,05,30,01,58,13.00
2015,05,30,01,59,12.90
2015,05,30,02,00,12.90
2015,05,30,02,01,12.90
2015,05,30,02,02,12.90
2015,05,30,02,03,12.90
2015,05,30,02,04,12.80
2015,05,30,02,05,12.80
2015,05,30,02,06,12.80
2015,05,30,02,07,12.80
2015,05,30,02,08,12.80
2015,05,30,02,09,12.70
2015,05,30,02,10,12.70
2015,05,30,02,11,12.70
2015,05,30,02,12,12.70
2015,05,30,02,13,12.70
2015,05,30,02,14,12.80
2015,05,30,02,15,12.80
2015,05,30,02,16,12.80
2015,05,30,02,17,12.80
2015,05,30,02,18,12.80
2015,05,30,02,19,12.70
2015,05,30,02,20,12.70
2015,05,30,02,21,12.60
2015,05,30,02,22,12.60
2015,05,30,02,23,12.60
2015,05,30,02,24,12.50
2015,05,30,02,25,12.50
2015,05,30,02,26,12.50
2015,05,30,02,27,12.50
2015,05,30,02,28,12.40
2015,05,30,02,29,12.40
2015,05,30,02,30,12.30
2015,05,30,02,31,12.30
2015,05,30,02,32,12.30
2015,05,30,02,33,12.20
2015,05,30,02,34,12.20
2015,05,30,02,35,12.10
2015,05,30,02,36,12.10
2015,05,30,02,37,12.10
2015,05,30,02,38,12.00
2015,05,30,02,39,12.00
2015,05,30,02,40,12.00
2015,05,30,02,41,12.00
2015,05,30,02,42,12.00
2015,05,30,02,43,11.90
2015,05,30,02,44,11.90
2015,05,30,02,45,11.90
2015,05,30,02,46,11.90
2015,05,30,02,47,11.90
2015,05,30,02,48,11.90
2015,05,30,02,49,11.90
2015,05,30,02,50,11.90
2015,05,30,02,51,11.90
2015,05,30,02,52,11.90
2015,05,30,02,53,11.90
2015,05,30,06,16,9.40
2015,05,30,06,17,9.50
2015,05,30,06,18,9.50
2015,05,30,06,19,9.60
2015,05,30,06,20,9.70
2015,05,30,06,21,9.70
2015,05,30,06,22,9.80
2015,05,30,06,23,9.80
2015,05,30,06,24,9.90
2015,05,30,06,25,9.90
2015,05,30,06,26,10.00
2015,05,30,06,27,10.10
2015,05,30,06,28,10.10
2015,05,30,06,29,10.20
2015,05,30,06,30,10.30
2015,05,30,06,31,10.40
2015,05,30,06,32,10.50
2015,05,30,06,33,10.50
2015,05,30,06,34,10.60
2015,05,30,06,35,10.70
2015,05,30,06,36,10.80
2015,05,30,06,37,11.00
2015,05,30,06,38,11.10
2015,05,30,06,39,11.20
2015,05,30,06,40,11.30
2015,05,30,06,41,11.40
2015,05,30,06,42,11.50
2015,05,30,06,43,11.70
2015,05,30,06,44,11.70
2015,05,30,06,45,11.80
2015,05,30,06,46,11.90
2015,05,30,06,47,12.00
2015,05,30,06,48,12.20
2015,05,30,06,49,12.30
2015,05,30,06,50,12.40
2015,05,30,06,51,12.50
2015,05,30,06,52,12.60
2015,05,30,06,53,12.70
2015,05,30,06,54,12.70
2015,05,30,06,55,12.80
2015,05,30,06,56,12.90
2015,05,30,06,57,13.00
2015,05,30,06,58,13.10
2015,05,30,06,59,13.20
2015,05,30,07,00,13.30
2015,05,30,07,01,13.40
2015,05,30,07,02,13.50
2015,05,30,07,03,13.60
2015,05,30,07,04,13.70
2015,05,30,07,05,13.70
2015,05,30,07,06,13.80
2015,05,30,07,07,13.80
2015,05,30,07,08,13.90
2015,05,30,07,09,13.90
2015,05,30,07,10,13.90
2015,05,30,07,11,13.80
2015,05,30,07,12,13.80
2015,05,30,07,13,13.80
2015,05,30,07,14,13.80
2015,05,30,07,15,13.80
2015,05,30,07,16,13.80
2015,05,30,07,17,13.70
2015,05,30,07,18,13.70
2015,05,30,07,19,13.70
2015,05,30,07,20,13.70
2015,05,30,07,21,13.80
2015,05,30,07,22,13.80
2015,05,30,07,23,13.80
2015,05,30,07,24,13.90
2015,05,30,07,25,14.00
2015,05,30,07,26,14.00
2015,05,30,07,27,14.10
2015,05,30,07,28,14.10
2015,05,30,07,29,14.20
2015,05,30,07,30,14.20
2015,05,30,07,31,14.20
2015,05,30,07,32,14.20
2015,05,30,07,33,14.20
2015,05,30,07,34,14.20
2015,05,30,07,35,14.20
2015,05,30,07,36,14.20
2015,05,30,07,37,14.20
2015,05,30,07,38,14.20
2015,05,30,07,39,14.20
2015,05,30,07,40,14.20
2015,05,30,07,41,14.20
2015,05,30,07,42,14.20
2015,05,30,07,43,14.20
2015,05,30,07,44,14.20
2015,05,30,07,45,14.20
2015,05,30,07,46,14.30
2015,05,30,07,47,14.30
2015,05,30,07,48,14.30
2015,05,30,07,49,14.40
2015,05,30,07,50,14.40
2015,05,30,07,51,14.50
2015,05,30,07,52,14.50
2015,05,30,07,53,14.60
2015,05,30,07,54,14.70
2015,05,30,07,55,14.70
2015,05,30,07,56,14.80
2015,05,30,07,57,14.80
2015,05,30,07,58,14.80
2015,05,30,07,59,14.90
2015,05,30,08,00,14.90
2015,05,30,08,01,14.90
2015,05,30,08,02,15.00
2015,05,30,08,03,15.10
2015,05,30,08,04,15.10
2015,05,30,08,05,15.20
2015,05,30,08,06,15.30
2015,05,30,08,07,15.40
2015,05,30,08,08,15.50
2015,05,30,08,09,15.60
2015,05,30,08,10,15.60
2015,05,30,08,11,15.70
2015,05,30,08,12,15.80
2015,05,30,08,13,15.90
2015,05,30,08,14,16.00
2015,05,30,08,15,16.00
2015,05,30,08,16,16.10
2015,05,30,08,17,16.10
2015,05,30,08,18,16.10
2015,05,30,08,19,16.10
2015,05,30,08,20,16.20
2015,05,30,08,21,16.30
2015,05,30,08,22,16.30
2015,05,30,08,23,16.40
2015,05,30,08,24,16.40
2015,05,30,08,25,16.40
2015,05,30,08,26,16.50
2015,05,30,08,27,16.50
2015,05,30,08,28,16.50
2015,05,30,08,29,16.50
2015,05,30,08,30,16.50
2015,05,30,08,31,16.50
2015,05,30,08,32,16.50
2015,05,30,08,33,16.40
2015,05,30,08,34,16.40
2015,05,30,08,35,16.30
2015,05,30,08,36,16.30
2015,05,30,08,37,16.30
2015,05,30,08,38,16.30
2015,05,30,08,39,16.40
2015,05,30,08,40,16.40
2015,05,30,08,41,16.50
2015,05,30,08,42,16.50
2015,05,30,08,43,16.60
2015,05,30,08,44,16.60
2015,05,30,08,45,16.60
2015,05,30,08,46,16.60
2015,05,30,08,47,16.60
2015,05,30,08,48,16.60
2015,05,30,08,49,16.50
2015,05,30,08,50,16.40
2015,05,30,08,51,16.30
2015,05,30,08,52,16.30
2015,05,30,08,53,16.40
2015,05,30,08,54,16.30
2015,05,30,08,55,16.20
2015,05,30,08,56,16.10
2015,05,30,08,57,16.00
2015,05,30,08,58,15.90
2015,05,30,08,59,15.80
2015,05,30,09,00,15.80
2015,05,30,09,01,15.80
2015,05,30,09,02,15.90
2015,05,30,09,03,15.90
2015,05,30,09,04,15.90
2015,05,30,09,05,16.00
2015,05,30,09,06,16.10
2015,05,30,09,07,16.10
2015,05,30,09,08,16.20
2015,05,30,09,09,16.20
2015,05,30,09,10,16.30
2015,05,30,09,11,16.40
2015,05,30,09,12,16.40
2015,05,30,09,13,16.50
2015,05,30,09,14,16.50
2015,05,30,09,15,16.60
2015,05,30,09,16,16.70
2015,05,30,09,17,16.70
2015,05,30,09,18,16.70
2015,05,30,09,19,16.70
2015,05,30,09,20,16.60
2015,05,30,09,21,16.60
2015,05,30,09,22,16.40
2015,05,30,09,23,16.40
2015,05,30,09,24,16.50
2015,05,30,09,25,16.50
2015,05,30,09,26,16.60
2015,05,30,09,27,16.60
2015,05,30,09,28,16.60
2015,05,30,09,29,16.60
2015,05,30,09,30,16.70
2015,05,30,09,31,16.70
2015,05,30,09,32,16.70
2015,05,30,09,33,16.70
2015,05,30,09,34,16.80
2015,05,30,09,35,16.80
2015,05,30,09,36,16.80
2015,05,30,09,37,16.80
2015,05,30,09,38,16.70
2015,05,30,09,39,16.70
2015,05,30,09,40,16.80
2015,05,30,09,41,16.80
2015,05,30,09,42,16.80
2015,05,30,09,43,16.80
2015,05,30,09,44,16.60
2015,05,30,09,45,16.60
2015,05,30,09,46,16.60
2015,05,30,09,47,16.50
2015,05,30,09,48,16.50
2015,05,30,09,49,16.50
2015,05,30,09,50,16.60
2015,05,30,09,51,16.70
2015,05,30,09,52,16.80
2015,05,30,09,53,16.90
2015,05,30,09,54,16.90
2015,05,30,09,55,17.00
2015,05,30,09,56,16.90
2015,05,30,09,57,16.80
2015,05,30,09,58,16.80
2015,05,30,09,59,16.70
2015,05,30,10,00,16.80
2015,05,30,10,01,16.80
2015,05,30,10,02,16.80
2015,05,30,10,03,16.80
2015,05,30,10,04,16.90
2015,05,30,10,05,17.00
2015,05,30,10,06,17.10
2015,05,30,10,07,17.00
2015,05,30,10,08,17.10
2015,05,30,10,09,17.20
2015,05,30,10,10,17.20
2015,05,30,10,11,17.20
2015,05,30,10,12,17.30
2015,05,30,10,13,17.30
2015,05,30,10,14,17.30
2015,05,30,10,15,17.20
2015,05,30,10,16,17.20
2015,05,30,10,17,17.10
2015,05,30,10,18,17.20
2015,05,30,10,19,17.20
2015,05,30,10,20,17.40
2015,05,30,10,21,17.60
2015,05,30,10,22,17.80
2015,05,30,10,23,17.90
2015,05,30,10,24,18.10
2015,05,30,10,25,18.20
2015,05,30,10,26,18.30
2015,05,30,10,27,18.30
2015,05,30,10,28,18.30
2015,05,30,10,29,18.20
2015,05,30,10,30,18.10
2015,05,30,10,31,17.90
2015,05,30,10,32,17.80
2015,05,30,10,33,17.70
2015,05,30,10,34,17.70
2015,05,30,10,35,17.60
2015,05,30,10,36,17.40
2015,05,30,10,37,17.20
2015,05,30,10,38,17.10
2015,05,30,10,39,17.10
2015,05,30,10,40,17.10
2015,05,30,10,41,17.20
2015,05,30,10,42,17.00
2015,05,30,10,43,16.90
2015,05,30,10,44,16.90
2015,05,30,10,45,17.00
2015,05,30,10,46,17.10
2015,05,30,10,47,17.30
2015,05,30,10,48,17.40
2015,05,30,10,49,17.50
2015,05,30,10,50,17.50
2015,05,30,10,51,17.50
2015,05,30,10,52,17.50
2015,05,30,10,53,17.30
2015,05,30,10,54,17.30
2015,05,30,10,55,17.20
2015,05,30,10,56,17.30
2015,05,30,10,57,17.30
2015,05,30,10,58,17.20
2015,05,30,10,59,17.20
2015,05,30,11,00,17.20
2015,05,30,11,01,17.30
2015,05,30,11,02,17.50
2015,05,30,11,03,17.50
2015,05,30,11,04,17.50
2015,05,30,11,05,17.50
2015,05,30,11,06,17.70
2015,05,30,11,07,17.70
2015,05,30,11,08,17.70
2015,05,30,11,09,17.70
2015,05,30,11,10,17.70
2015,05,30,11,11,17.80
2015,05,30,11,12,17.80
2015,05,30,11,13,17.70
2015,05,30,11,14,17.60
2015,05,30,11,15,17.70
2015,05,30,11,16,17.80
2015,05,30,11,17,17.80
2015,05,30,11,18,17.80
2015,05,30,11,19,17.70
2015,05,30,11,20,17.50
2015,05,30,11,21,17.40
2015,05,30,11,22,17.30
2015,05,30,11,23,17.20
2015,05,30,11,24,17.10
2015,05,30,11,25,17.20
2015,05,30,11,26,17.30
2015,05,30,11,27,17.40
2015,05,30,11,28,17.40
2015,05,30,11,29,17.50
2015,05,30,11,30,17.60
2015,05,30,11,31,17.70
2015,05,30,11,32,17.70
2015,05,30,11,33,17.70
2015,05,30,11,34,17.60
2015,05,30,11,35,17.50
2015,05,30,11,36,17.50
2015,05,30,11,37,17.40
2015,05,30,11,38,17.50
2015,05,30,11,39,17.60
2015,05,30,11,40,17.70
2015,05,30,11,41,17.70
2015,05,30,11,42,17.80
2015,05,30,11,43,17.90
2015,05,30,11,44,18.10
2015,05,30,11,45,18.10
2015,05,30,11,46,18.10
2015,05,30,11,47,18.00
2015,05,30,11,48,17.90
2015,05,30,11,49,17.80
2015,05,30,11,50,17.90
2015,05,30,11,51,18.00
2015,05,30,11,52,18.00
2015,05,30,11,53,18.20
2015,05,30,11,54,18.30
2015,05,30,11,55,18.30
2015,05,30,11,56,18.20
2015,05,30,11,57,18.20
2015,05,30,11,58,18.20
2015,05,30,11,59,18.30
2015,05,30,12,00,18.40
2015,05,30,12,01,18.50
2015,05,30,12,02,18.60
2015,05,30,12,03,18.70
2015,05,30,12,04,18.80
2015,05,30,12,05,18.80
2015,05,30,12,06,18.70
2015,05,30,12,07,18.60
2015,05,30,12,08,18.60
2015,05,30,12,09,18.70
2015,05,30,12,10,18.90
2015,05,30,12,11,19.10
2015,05,30,12,12,19.10
2015,05,30,12,13,19.20
2015,05,30,12,14,19.30
2015,05,30,12,15,19.50
2015,05,30,12,16,19.60
2015,05,30,12,17,19.50
2015,05,30,12,18,19.40
2015,05,30,12,19,19.40
2015,05,30,12,20,19.40
2015,05,30,12,21,19.30
2015,05,30,12,22,19.40
2015,05,30,12,23,19.40
2015,05,30,12,24,19.50
2015,05,30,12,25,19.60
2015,05,30,12,26,19.70
2015,05,30,12,27,19.70
2015,05,30,12,28,19.60
2015,05,30,12,29,19.40
2015,05,30,12,30,19.30
2015,05,30,12,31,19.20
2015,05,30,12,32,19.20
2015,05,30,12,33,19.10
2015,05,30,12,34,19.10
2015,05,30,12,35,19.20
2015,05,30,12,36,19.30
2015,05,30,12,37,19.40
2015,05,30,12,38,19.40
2015,05,30,12,39,19.40
2015,05,30,12,40,19.20
2015,05,30,12,41,19.10
2015,05,30,12,42,19.00
2015,05,30,12,43,19.10
2015,05,30,12,44,19.20
2015,05,30,12,45,19.30
2015,05,30,12,46,19.30
2015,05,30,12,47,19.30
2015,05,30,12,48,19.40
2015,05,30,12,49,19.50
2015,05,30,12,50,19.40
2015,05,30,12,51,19.30
2015,05,30,12,52,19.20
2015,05,30,12,53,19.20
2015,05,30,12,54,19.30
2015,05,30,12,55,19.30
2015,05,30,12,56,19.20
2015,05,30,12,57,19.10
2015,05,30,12,58,19.10
2015,05,30,12,59,19.00
2015,05,30,13,00,19.00
2015,05,30,13,01,19.10
2015,05,30,13,02,19.30
2015,05,30,13,03,19.50
2015,05,30,13,04,19.60
2015,05,30,13,05,19.60
2015,05,30,13,06,19.70
2015,05,30,13,07,19.80
2015,05,30,13,08,20.00
2015,05,30,13,09,20.10
2015,05,30,13,10,20.20
2015,05,30,13,11,20.30
2015,05,30,13,12,20.30
2015,05,30,13,13,20.20
2015,05,30,13,14,20.20
2015,05,30,13,15,20.20
2015,05,30,13,16,20.10
2015,05,30,13,17,20.10
2015,05,30,13,18,20.10
2015,05,30,13,19,20.20
2015,05,30,13,20,20.30
2015,05,30,13,21,20.30
2015,05,30,13,22,20.40
2015,05,30,13,23,20.60
2015,05,30,13,24,20.70
2015,05,30,13,25,20.70
2015,05,30,13,26,20.60
2015,05,30,13,27,20.60
2015,05,30,13,28,20.50
2015,05,30,13,29,20.50
2015,05,30,13,30,20.50
2015,05,30,13,31,20.50
2015,05,30,13,32,20.40
2015,05,30,13,33,20.40
2015,05,30,13,34,20.30
2015,05,30,13,35,20.20
2015,05,30,13,36,20.10
2015,05,30,13,37,20.00
2015,05,30,13,38,19.90
2015,05,30,13,39,19.90
2015,05,30,13,40,20.00
2015,05,30,13,41,19.90
2015,05,30,13,42,19.80
2015,05,30,13,43,19.80
2015,05,30,13,44,19.80
2015,05,30,13,45,19.70
2015,05,30,13,46,19.60
2015,05,30,13,47,19.60
2015,05,30,13,48,19.60
2015,05,30,13,49,19.70
2015,05,30,13,50,19.70
2015,05,30,13,51,19.80
2015,05,30,13,52,19.90
2015,05,30,13,53,20.00
2015,05,30,13,54,20.10
2015,05,30,13,55,20.20
2015,05,30,13,56,20.30
2015,05,30,13,57,20.50
2015,05,30,13,58,20.60
2015,05,30,13,59,20.60
2015,05,30,14,00,20.50
2015,05,30,14,01,20.40
2015,05,30,14,02,20.30
2015,05,30,14,03,20.30
2015,05,30,14,04,20.30
2015,05,30,14,05,20.30
2015,05,30,14,06,20.30
2015,05,30,14,07,20.30
2015,05,30,14,08,20.10
2015,05,30,14,09,19.80
2015,05,30,14,10,19.80
2015,05,30,14,11,19.90
2015,05,30,14,12,20.00
2015,05,30,14,13,20.00
2015,05,30,14,14,19.90
2015,05,30,14,15,19.90
2015,05,30,14,16,19.90
2015,05,30,14,17,19.90
2015,05,30,14,18,19.80
2015,05,30,14,19,19.70
2015,05,30,14,20,19.70
2015,05,30,14,21,19.80
2015,05,30,14,22,19.80
2015,05,30,14,23,19.70
2015,05,30,14,24,19.60
2015,05,30,14,25,19.50
2015,05,30,14,26,19.40
2015,05,30,14,27,19.30
2015,05,30,14,28,19.30
2015,05,30,14,29,19.30
2015,05,30,14,30,19.40
2015,05,30,14,31,19.30
2015,05,30,14,32,19.40
2015,05,30,14,33,19.40
2015,05,30,14,34,19.40
2015,05,30,14,35,19.50
2015,05,30,14,36,19.60
2015,05,30,14,37,19.80
2015,05,30,14,38,19.80
2015,05,30,14,39,19.90
2015,05,30,14,40,19.80
2015,05,30,14,41,19.80
2015,05,30,14,42,19.80
2015,05,30,14,43,19.70
2015,05,30,14,44,19.80
2015,05,30,14,45,19.80
2015,05,30,14,46,19.80
2015,05,30,14,47,19.80
2015,05,30,14,48,19.80
2015,05,30,14,49,19.70
2015,05,30,14,50,19.70
2015,05,30,14,51,19.70
2015,05,30,14,52,19.70
2015,05,30,14,53,19.70
2015,05,30,14,54,19.70
2015,05,30,14,55,19.80
2015,05,30,14,56,19.90
2015,05,30,14,57,20.10
2015,05,30,14,58,20.20
2015,05,30,14,59,20.10
2015,05,30,15,00,20.00
2015,05,30,15,01,19.90
2015,05,30,15,02,19.90
2015,05,30,15,03,20.00
2015,05,30,15,04,20.00
2015,05,30,15,05,19.90
2015,05,30,15,06,19.80
2015,05,30,15,07,19.70
2015,05,30,15,08,19.60
2015,05,30,15,09,19.50
2015,05,30,15,10,19.40
2015,05,30,15,11,19.50
2015,05,30,15,12,19.50
2015,05,30,15,13,19.40
2015,05,30,15,14,19.40
2015,05,30,15,15,19.40
2015,05,30,15,16,19.30
2015,05,30,15,17,19.30
2015,05,30,15,18,19.10
2015,05,30,15,19,19.10
2015,05,30,15,20,19.10
2015,05,30,15,21,19.00
2015,05,30,15,22,18.90
2015,05,30,15,23,18.80
2015,05,30,15,24,18.80
2015,05,30,15,25,18.90
2015,05,30,15,26,19.00
2015,05,30,15,27,19.10
2015,05,30,15,28,19.20
2015,05,30,15,29,19.10
2015,05,30,15,30,19.20
2015,05,30,15,31,19.20
2015,05,30,15,32,19.20
2015,05,30,15,33,19.10
2015,05,30,15,34,19.00
2015,05,30,15,35,19.00
2015,05,30,15,36,18.90
2015,05,30,15,37,19.00
2015,05,30,15,38,19.10
2015,05,30,15,39,19.00
2015,05,30,15,40,19.00
2015,05,30,15,41,19.10
2015,05,30,15,42,19.20
2015,05,30,15,43,19.20
2015,05,30,15,44,19.10
2015,05,30,15,45,19.00
2015,05,30,15,46,18.80
2015,05,30,15,47,18.60
2015,05,30,15,48,18.60
2015,05,30,15,49,18.60
2015,05,30,15,50,18.60
2015,05,30,15,51,18.50
2015,05,30,15,52,18.40
2015,05,30,15,53,18.30
2015,05,30,15,54,18.20
2015,05,30,15,55,18.10
2015,05,30,15,56,18.00
2015,05,30,15,57,18.10
2015,05,30,15,58,18.30
2015,05,30,15,59,18.50
2015,05,30,16,00,18.60
2015,05,30,16,01,18.80
2015,05,30,16,02,18.80
2015,05,30,16,03,18.80
2015,05,30,16,04,18.80
2015,05,30,16,05,18.70
2015,05,30,16,06,18.60
2015,05,30,16,07,18.50
2015,05,30,16,08,18.30
2015,05,30,16,09,18.20
2015,05,30,16,10,18.10
2015,05,30,16,11,18.00
2015,05,30,16,12,18.00
2015,05,30,16,13,18.00
2015,05,30,16,14,18.10
2015,05,30,16,15,18.20
2015,05,30,16,16,18.30
2015,05,30,16,17,18.40
2015,05,30,16,18,18.40
2015,05,30,16,19,18.40
2015,05,30,16,20,18.40
2015,05,30,16,21,18.40
2015,05,30,16,22,18.30
2015,05,30,16,23,18.30
2015,05,30,16,24,18.20
2015,05,30,16,25,18.20
2015,05,30,16,26,18.30
2015,05,30,16,27,18.30
2015,05,30,16,28,18.40
2015,05,30,16,29,18.50
2015,05,30,16,30,18.50
2015,05,30,16,31,18.40
2015,05,30,16,32,18.40
2015,05,30,16,33,18.40
2015,05,30,16,34,18.50
2015,05,30,16,35,18.50
2015,05,30,16,36,18.60
2015,05,30,16,37,18.70
2015,05,30,16,38,18.70
2015,05,30,16,39,18.70
2015,05,30,16,40,18.70
2015,05,30,16,41,18.70
2015,05,30,16,42,18.70
2015,05,30,16,43,18.60
2015,05,30,16,44,18.50
2015,05,30,16,45,18.40
2015,05,30,16,46,18.40
2015,05,30,16,47,18.40
2015,05,30,16,48,18.50
2015,05,30,16,49,18.50
2015,05,30,16,50,18.60
2015,05,30,16,51,18.50
2015,05,30,16,52,18.50
2015,05,30,16,53,18.40
2015,05,30,16,54,18.30
2015,05,30,16,55,18.30
2015,05,30,16,56,18.40
2015,05,30,16,57,18.50
2015,05,30,16,58,18.60
2015,05,30,16,59,18.70
2015,05,30,17,00,18.70
2015,05,30,17,01,18.80
2015,05,30,17,02,18.80
2015,05,30,17,03,18.80
2015,05,30,17,04,18.70
2015,05,30,17,05,18.60
2015,05,30,17,06,18.50
2015,05,30,17,07,18.40
2015,05,30,17,08,18.30
2015,05,30,17,09,18.30
2015,05,30,17,10,18.30
2015,05,30,17,11,18.30
2015,05,30,17,12,18.30
2015,05,30,17,13,18.30
2015,05,30,17,14,18.30
2015,05,30,17,15,18.30
2015,05,30,17,16,18.40
2015,05,30,17,17,18.50
2015,05,30,17,18,18.50
2015,05,30,17,19,18.50
2015,05,30,17,20,18.60
2015,05,30,17,21,18.70
2015,05,30,17,22,18.70
2015,05,30,17,23,18.80
2015,05,30,17,24,18.70
2015,05,30,17,25,18.70
2015,05,30,17,26,18.70
2015,05,30,17,27,18.80
2015,05,30,17,28,18.80
2015,05,30,17,29,18.80
2015,05,30,17,30,18.80
2015,05,30,17,31,18.80
2015,05,30,17,32,18.80
2015,05,30,17,33,18.70
2015,05,30,17,34,18.80
2015,05,30,17,35,18.80
2015,05,30,17,36,18.80
2015,05,30,17,37,18.80
2015,05,30,17,38,18.70
2015,05,30,17,39,18.60
2015,05,30,17,40,18.60
2015,05,30,17,41,18.50
2015,05,30,17,42,18.40
2015,05,30,17,43,18.30
2015,05,30,17,44,18.30
2015,05,30,17,45,18.30
2015,05,30,17,46,18.30
2015,05,30,17,47,18.30
2015,05,30,17,48,18.40
2015,05,30,17,49,18.40
2015,05,30,17,50,18.40
2015,05,30,17,51,18.30
2015,05,30,17,52,18.30
2015,05,30,17,53,18.30
2015,05,30,17,54,18.20
2015,05,30,17,55,18.20
2015,05,30,17,56,18.10
2015,05,30,17,57,18.10
2015,05,30,17,58,18.10
2015,05,30,17,59,18.10
2015,05,30,18,00,18.00
2015,05,30,18,01,18.00
2015,05,30,18,02,18.00
2015,05,30,18,03,18.10
2015,05,30,18,04,18.10
2015,05,30,18,05,18.10
2015,05,30,18,06,18.10
2015,05,30,18,07,18.10
2015,05,30,18,08,18.10
2015,05,30,18,09,18.10
2015,05,30,18,10,18.20
2015,05,30,18,11,18.20
2015,05,30,18,12,18.30
2015,05,30,18,13,18.40
2015,05,30,18,14,18.50
2015,05,30,18,15,18.50
2015,05,30,18,16,18.50
2015,05,30,18,17,18.50
2015,05,30,18,18,18.60
2015,05,30,18,19,18.60
2015,05,30,18,20,18.70
2015,05,30,18,21,18.70
2015,05,30,18,22,18.80
2015,05,30,18,23,18.80
2015,05,30,18,24,18.80
2015,05,30,18,25,18.90
2015,05,30,18,26,18.90
2015,05,30,18,27,18.90
2015,05,30,18,28,19.00
2015,05,30,18,29,19.00
2015,05,30,18,30,19.10
2015,05,30,18,31,19.10
2015,05,30,18,32,19.20
2015,05,30,18,33,19.20
2015,05,30,18,34,19.30
2015,05,30,18,35,19.30
2015,05,30,18,36,19.40
2015,05,30,18,37,19.40
2015,05,30,18,38,19.50
2015,05,30,18,39,19.60
2015,05,30,18,40,19.60
2015,05,30,18,41,19.60
2015,05,30,18,42,19.50
2015,05,30,18,43,19.50
2015,05,30,18,44,19.40
2015,05,30,18,45,19.30
2015,05,30,18,46,19.30
2015,05,30,18,47,19.30
2015,05,30,18,48,19.30
2015,05,30,18,49,19.30
2015,05,30,18,50,19.30
2015,05,30,18,51,19.30
2015,05,30,18,52,19.30
2015,05,30,18,53,19.30
2015,05,30,18,54,19.30
2015,05,30,18,55,19.30
2015,05,30,18,56,19.30
2015,05,30,18,57,19.20
2015,05,30,18,58,19.20
2015,05,30,18,59,19.10
2015,05,30,19,00,19.10
2015,05,30,19,01,19.00
2015,05,30,19,02,19.00
2015,05,30,19,03,18.90
2015,05,30,19,04,18.90
2015,05,30,19,05,18.90
2015,05,30,19,06,19.00
2015,05,30,19,07,19.00
2015,05,30,19,08,19.00
2015,05,30,19,09,19.10
2015,05,30,19,10,19.10
2015,05,30,19,11,19.10
2015,05,30,19,12,19.20
2015,05,30,19,13,19.20
2015,05,30,19,14,19.20
2015,05,30,19,15,19.20
2015,05,30,19,16,19.20
2015,05,30,19,17,19.10
2015,05,30,19,18,19.00
2015,05,30,19,19,19.00
2015,05,30,19,20,18.90
2015,05,30,19,21,18.90
2015,05,30,19,22,18.90
2015,05,30,19,23,18.80
2015,05,30,19,24,18.80
2015,05,30,19,25,18.80
2015,05,30,19,26,18.80
2015,05,30,19,27,18.70
2015,05,30,19,28,18.70
2015,05,30,19,29,18.70
2015,05,30,19,30,18.60
2015,05,30,19,31,18.60
2015,05,30,19,32,18.50
2015,05,30,19,33,18.40
2015,05,30,19,34,18.40
2015,05,30,19,35,18.30
2015,05,30,19,36,18.30
2015,05,30,19,37,18.20
2015,05,30,19,38,18.10
2015,05,30,19,39,18.10
2015,05,30,19,40,18.00
2015,05,30,19,41,18.00
2015,05,30,19,42,18.00
2015,05,30,19,43,17.90
2015,05,30,19,44,17.90
2015,05,30,19,45,17.90
2015,05,30,19,46,17.90
2015,05,30,19,47,17.90
2015,05,30,19,48,17.80
2015,05,30,19,49,17.80
2015,05,30,19,50,17.80
2015,05,30,19,51,17.80
2015,05,30,19,52,17.80
2015,05,30,19,53,17.80
2015,05,30,19,54,17.80
2015,05,30,19,55,17.80
2015,05,30,19,56,17.80
2015,05,30,19,57,17.80
2015,05,30,19,58,17.70
2015,05,30,19,59,17.70
2015,05,30,20,00,17.70
2015,05,30,20,01,17.70
2015,05,30,20,02,17.70
2015,05,30,20,03,17.70
2015,05,30,20,04,17.60
2015,05,30,20,05,17.60
2015,05,30,20,06,17.60
2015,05,30,20,07,17.70
2015,05,30,20,08,17.60
2015,05,30,20,09,17.60
2015,05,30,20,10,17.60
2015,05,30,20,11,17.60
2015,05,30,20,12,17.60
2015,05,30,20,13,17.60
2015,05,30,20,14,17.60
2015,05,30,20,15,17.60
2015,05,30,20,16,17.60
2015,05,30,20,17,17.60
2015,05,30,20,18,17.60
2015,05,30,20,19,17.60
2015,05,30,20,20,17.60
2015,05,30,20,21,17.60
2015,05,30,20,22,17.50
2015,05,30,20,23,17.50
2015,05,30,20,24,17.50
2015,05,30,20,25,17.40
2015,05,30,20,26,17.40
2015,05,30,20,27,17.40
2015,05,30,20,28,17.30
2015,05,30,20,29,17.30
2015,05,30,20,30,17.20
2015,05,30,20,31,17.10
2015,05,30,20,32,17.10
2015,05,30,20,33,17.00
2015,05,30,20,34,17.00
2015,05,30,20,35,16.90
2015,05,30,20,36,16.80
2015,05,30,20,37,16.80
2015,05,30,20,38,16.70
2015,05,30,20,39,16.70
2015,05,30,20,40,16.70
2015,05,30,20,41,16.60